Terminal Aerodrome Forecast
Issued by NWS

Home | Current Version | Previous Version | Text Only | Print | Product List | Glossary On
Versions: 1 2 3 4 5 6 7 8 9 10 11 12 13 14 15 16 17 18 19 20 21 22 23 24 25 26 27 28
000
FTUS44 KOUN 022340
TAFCSM
TAF
KCSM 022340Z 0300/0324 17010KT P6SM OVC025
     FM030500 18014G21KT 4SM BR OVC015
     FM031600 22015G25KT P6SM SCT015 BKN100
     FM032200 35012G20KT P6SM SCT015 OVC100=

USA.gov is the U.S. government's official web portal to all federal, state and local government web resources and services.